Preview of NWS' New Version of Forecast
This preview is not operational and should not be used for support decisions.
Latest weather observations around

Merkel Field Sylacauga Municipal Airport (KSCD)

Using International System of Units (Switch to English Units)
Date/ Time (CDT) Wind (kph) Vis. (km) Weather Sky Cond. Temp (°C) Rel. Humidity Wind Chill (°C) Heat Index (°C) Pressure Precip. (cm)
Air Dwpt 6 hour Altimeter (hPa) Sea level (hPa) 1 hr 3 hr 6 hr
Max Min
May 27 23:55 E 13 11.27 Drizzle SCT024 BKN046 OVC065 21 21     98%   22 1013.2   0    
May 27 21:55 E 5 16.09 Clear CLR 24 21     84%   25 1012.9        
May 27 21:35 E 8 16.09 Clear CLR 24 22     88%   25 1012.5        
May 27 21:15 ENE 8 16.09 Clear CLR 24 22     90%   25 1012.5        
May 27 20:55 Calm 16.09 Partly Cloudy SCT043 24 22     90%   25 1012.2        
May 27 20:35 E 5 16.09 Partly Cloudy SCT041 SCT048 25 22     88%   25 1011.9        
May 27 20:15 ENE 5 16.09 Mostly Cloudy BKN043 BKN048 25 22     88%   26 1011.9        
May 27 19:55 Calm 16.09 Clear CLR 24 23     91%   25 1011.5        
May 27 19:35 Calm 16.09 Clear CLR 24 24     97%   25 1011.2        
May 27 19:15 Calm 16.09 Clear CLR 25 23     87%   26 1011.2        
May 27 18:55 Calm 16.09 Clear CLR 25 23     85%   26 1010.8        
May 27 18:35 E 5 16.09 Clear   25 23     84%   26 1010.8        
May 27 18:15 E 5 16.09 Clear   26 22     81%   26 1010.8        
May 27 17:55 ENE 5 16.09 Clear   25 22     79%   26 1010.8        
May 27 17:35 NE 5 16.09 Mostly Cloudy SCT050 SCT070 BKN110 26 22     81%   26 1010.8        
May 27 17:15 ENE 13 16.09 Rain SCT037 BKN075 OVC110 26 21     74%   28 1010.8        
May 27 16:55   16.09 Light Rain SCT038 BKN049 BKN060 28 21     69%   30 1010.8        
May 27 16:35 E 11 16.09 Mostly Cloudy SCT038 SCT045 BKN050 30 22     64%   33 1010.8        
May 27 16:15 SE 8 16.09 Mostly Cloudy BKN038 BKN044 29 22     69%   32 1011.2        
May 27 15:55 Calm 16.09 Partly Cloudy SCT040 29 21     65%   31 1011.2        
May 27 15:35 S 8 16.09 Partly Cloudy SCT060 SCT080 27 22     75%   30 1011.5        
May 27 15:15 SSE 11 16.09 Mostly Cloudy SCT041 SCT050 BKN060 28 22     70%   31 1011.9        
May 27 14:55 Calm 16.09 Partly Cloudy SCT039 SCT046 SCT070 29 21     64%   32 1011.9        
May 27 14:35 NE 8 16.09 Partly Cloudy SCT037 SCT046 29 22     64%   32 1012.2        
May 27 14:15 E 8 16.09 Partly Cloudy SCT036 SCT048 29 22     64%   32 1012.5        
May 27 13:55 NE 9 16.09 Mostly Cloudy BKN036 BKN043 28 22     67%   31 1012.5        
May 27 13:35 ENE 5 16.09 Mostly Cloudy SCT036 BKN044 28 22     67%   31 1012.5        
May 27 13:15 NNE 8 16.09 Partly Cloudy SCT036 SCT044 28 21     65%   30 1012.9        
May 27 12:55 E 11 16.09 Clear CLR 28 20     61%   30 1013.2        
May 27 12:35 E 8 16.09 Partly Cloudy SCT033 28 20     61%   30 1013.2        
May 27 12:15 E 5 16.09 Partly Cloudy SCT033 SCT050 28 22     67%   31 1013.6        
May 27 11:55 E 5 16.09 Clear CLR 28 21     67%   30 1013.9        
May 27 11:35 ESE 5 16.09 Partly Cloudy SCT025 SCT033 28 22     72%   31 1014.2        
May 27 11:15 SE 15 16.09 Cloudy OVC025 27 22     74%   29 1014.2        
May 27 10:55 SSE 8 16.09 Mostly Cloudy BKN023 BKN055 27 22     76%   29 1014.6        
May 27 10:35 E 5 16.09 Partly Cloudy SCT023 SCT030 27 22     75%   29 1014.2        
May 27 10:15 Calm 16.09 Partly Cloudy SCT019 27 22     76%   29 1014.2        
May 27 09:55 ESE 8 16.09 Partly Cloudy SCT017 26 23     80%   29 1014.2        
May 27 09:35 E 5 16.09 Mostly Cloudy BKN013 26 24     90%   28 1014.2        
May 27 09:15 SSE 8 16.09 Mostly Cloudy BKN011 25 25     98%   26 1014.2        
May 27 08:55 Calm 16.09 Partly Cloudy SCT009 25 24     96%   26 1014.2        
May 27 08:35 Calm 16.09 Partly Cloudy SCT006 SCT110 24 24     100%   25 1014.2        
May 27 08:15 ESE 5 16.09 Mostly Cloudy SCT004 BKN090 BKN110 23 23     100%   24 1013.9        
May 27 07:55 Calm 16.09 Cloudy BKN004 OVC100 22 22     100%   23 1013.9        
May 27 07:35 SE 5 11.27 Cloudy OVC004 21 21     100%   22 1014.2        
May 27 07:15 Calm 11.27 Cloudy OVC004 21 21     100%     1014.2        
May 27 06:55 Calm 16.09 Cloudy OVC004 21 21     100%     1014.2        
May 27 06:35 Calm 11.27 Mostly Cloudy BKN004 BKN110 21 21     100%     1013.9        
May 27 06:15 Calm 6.44 Fog/Mist BKN004 BKN110 20 20     100%     1013.6        
May 27 05:55 Calm 2.01 Fog/Mist OVC004 20 20     100%     1013.6        
May 27 05:35 Calm 2.82 Fog/Mist SCT004 20 20     100%     1013.6        
May 27 05:15 Calm 4.02 Fog/Mist CLR 20 20     100%     1013.2        
May 27 04:55 Calm 2.82 Fog/Mist SCT004 SCT110 20 20     100%     1013.2        
May 27 04:35 Calm 2.41 Fog/Mist SCT004 BKN110 20 20     100%     1013.2        
May 27 04:15 Calm 2.41 Fog/Mist VV007 20 20     100%     1012.9        
May 27 03:55 Calm 6.44 Fog/Mist SCT002 SCT120 21 21     100%     1013.2        
May 27 03:35 Calm 2.01 Fog/Mist BKN002 BKN008 BKN120 21 21     100%     1013.2        
May 27 03:15 Calm 4.83 Fog/Mist OVC002 21 21     100%     1012.9        
May 27 02:55 Calm 3.22 Fog/Mist OVC002 21 21     100%     1012.9        
May 27 02:35 Calm 1.21 Fog/Mist OVC004 21 21     100%     1013.2        
May 27 02:15 Calm 6.44 Fog/Mist CLR 21 21     100%     1013.2        
May 27 01:55 Calm 11.27 Partly Cloudy SCT018 21 21     100%   22 1013.2        
May 27 01:35 Calm 16.09 Cloudy OVC018 22 22     100%   22 1013.6        
May 27 01:15 Calm 16.09 Cloudy OVC018 21 21     100%   22 1013.6        
May 27 00:55 Calm 11.27 Mostly Cloudy BKN018 21 21     100%   22 1013.6       0
May 27 00:35 Calm 8.05 Fog/Mist CLR 21 21     100%     1013.6        
May 27 00:15 Calm 16.09 Clear CLR 21 21     100%   22 1013.6        
May 26 23:55 Calm 16.09 Clear CLR 21 21     100%   22 1013.6        
May 26 23:35 Calm 16.09 Partly Cloudy SCT004 SCT120 22 22     100%   22 1013.6        
May 26 23:15 Calm 16.09 Mostly Cloudy SCT004 BKN120 22 22     100%   23 1013.9        
May 26 22:55 Calm 16.09 Mostly Cloudy BKN110 22 22     100%   23 1013.9   0    
May 26 22:35 WSW 8 16.09 Mostly Cloudy SCT041 SCT055 BKN080 22 22     100%   23 1013.9   0    
May 26 22:15 W 5 11.27 Thunderstorms and Rain BKN045 BKN055 OVC120 23 23     100%   23 1014.2   0    
May 26 21:55 SW 8 11.27 Thunderstorms and Rain SCT015 BKN049 OVC120 23 23     99%   24 1014.2   0 0  
May 26 21:35 SSE 15 16.09 Mostly Cloudy SCT023 BKN036 BKN046 24 21     85%   24 1013.6        
May 26 21:15 SE 8 16.09 Partly Cloudy SCT038 SCT060 23 23     100%   24 1012.9        
May 26 20:55 Calm 16.09 Partly Cloudy SCT041 SCT050 SCT120 23 23     100%   24 1012.5        
May 26 20:35 Calm 16.09 Partly Cloudy SCT043 SCT120 23 23     100%   24 1012.5        
May 26 20:15 W 5 16.09 Clear CLR 23 23     100%   24 1011.9        
May 26 19:55 Calm 16.09 Clear CLR 24 22     88%   25 1011.5        
May 26 19:35 Calm 16.09 Clear CLR 25 22     85%   25 1011.5        
May 26 19:15 Calm 16.09 Clear CLR 25 22     81%   26 1011.5        
May 26 18:55 NW 5 16.09 Clear CLR 26 22     79%   28 1011.5        
May 26 18:35 Calm 16.09 Mostly Cloudy BKN120 27 21     71%   29 1011.5        
May 26 18:15 Calm 16.09 Mostly Cloudy BKN120 27 21     69%   29 1011.2        
May 26 17:55 S 8 16.09 Partly Cloudy SCT100 27 21     66%   29 1011.2        
May 26 17:35 SSE 11 16.09 Partly Cloudy SCT100 29 21     62%   31 1011.5        
May 26 17:15 SSE 11 16.09 Partly Cloudy SCT080 29 21     62%   31 1011.2        
May 26 16:55 S 9 16.09 Partly Cloudy SCT080 30 21     60%   33 1011.5        
May 26 16:35 S 11 16.09 Clear CLR 30 21     60%   33 1011.5        
May 26 16:15 SSE 13 16.09 Clear CLR 30 21     60%   32 1011.5        
May 26 15:55 SSE 13 16.09 Clear CLR 29 21     61%   32 1011.5        
May 26 15:35 SSE 8 16.09 Partly Cloudy SCT038 30 21     61%   32 1011.5        
May 26 15:15 SSW 5 16.09 Partly Cloudy SCT038 SCT043 30 22     62%   33 1011.5        
May 26 14:55 S 8 16.09 Partly Cloudy SCT036 30 21     60%   32 1011.9        
May 26 14:35 Calm 16.09 Clear CLR 29 22     63%   32 1012.2        
May 26 14:15 SSE 9 16.09 Partly Cloudy SCT110 29 21     61%   32 1012.5        
May 26 13:55 SSW 9 16.09 Mostly Cloudy BKN110 29 21     61%   32 1013.2        
May 26 13:35 SE 11 16.09 Mostly Cloudy SCT031 BKN120 28 21     65%   30 1013.6        
May 26 13:15 SE 8 16.09 Cloudy SCT031 SCT090 OVC120 29 22     68%   31 1013.9        
May 26 12:55 SE 5 16.09 Cloudy SCT041 BKN090 OVC110 28 21     69%   30 1013.9        
May 26 12:35 SSE 5 16.09 Cloudy SCT030 BKN041 OVC060 27 21     70%   30 1014.2        
May 26 12:15 Calm 16.09 Mostly Cloudy SCT030 BKN036 BKN060 28 22     69%   30 1014.6        
May 26 11:55 S 9 16.09 Partly Cloudy SCT028 SCT036 SCT060 28 22     70%   31 1014.6        
May 26 11:35 Calm 16.09 Mostly Cloudy BKN026 BKN034 26 21     73%   28 1014.9        
May 26 11:15 E 8 16.09 Mostly Cloudy BKN024 26 22     74%   28 1014.9        
May 26 10:55 NE 5 16.09 Cloudy OVC021 26 21     76%   27 1015.2        
May 26 10:35 ESE 5 16.09 Mostly Cloudy BKN021 BKN026 25 23     87%   26 1015.6        
May 26 10:15 Calm 16.09 Mostly Cloudy BKN019 25 23     88%   26 1015.6        
May 26 09:55 SE 5 16.09 Cloudy OVC021 25 23     92%   25 1015.6        
May 26 09:35 SE 9 16.09 Cloudy SCT013 OVC019 24 23     94%   25 1015.6        
May 26 09:15 S 5 16.09 Cloudy OVC017 24 23     98%   25 1015.9        
May 26 08:55 SW 5 16.09 Cloudy SCT011 OVC018 23 23     100%   24 1015.9        
May 26 08:35 S 5 16.09 Cloudy OVC009 23 23     100%   24 1015.6        
May 26 08:15 S 5 16.09 Cloudy OVC009 23 23     100%   24 1015.2        
May 26 07:55 SSW 5 16.09 Cloudy OVC009 22 22     100%   23 1014.9        
May 26 07:35 Calm 16.09 Mostly Cloudy BKN007 BKN011 BKN110 22 22     100%   23 1014.6        
May 26 07:15 Calm 16.09 Cloudy BKN007 OVC013 22 22     100%   23 1014.2        
May 26 06:55 Calm 11.27 Cloudy OVC013 22 22     100%   23 1014.2        
May 26 06:35 Calm 11.27 Cloudy OVC015 21 21     100%   22 1013.9        
May 26 06:15 Calm 11.27 Cloudy SCT010 OVC015 21 21     100%     1013.9        
May 26 05:55 Calm 11.27 Cloudy OVC011 21 21     100%     1013.6        
May 26 05:35 Calm 16.09 Cloudy OVC006 21 21     100%     1013.6        
May 26 05:15 Calm 11.27 Cloudy OVC006 21 21     100%     1013.6        
May 26 04:55 Calm 11.27 Cloudy OVC008 21 21     100%     1013.2        
May 26 04:35 Calm 16.09 Mostly Cloudy BKN010 BKN110 21 21     100%     1013.2        
May 26 04:15 Calm 16.09 Cloudy OVC010 21 21     100%     1013.2        
May 26 03:55 Calm 16.09 Mostly Cloudy BKN010 BKN100 21 21     100%     1013.6        
May 26 03:35 SE 5 16.09 Cloudy BKN010 OVC110 21 21     100%     1013.2        
May 26 03:15 Calm 16.09 Cloudy OVC010 22 22     100%   22 1013.2        
May 26 02:55 Calm 16.09 Cloudy OVC010 22 22     100%   22 1013.2        
May 26 02:35 S 5 16.09 Cloudy OVC008 22 22     100%   22 1013.2        
May 26 02:15 Calm 16.09 Cloudy BKN006 OVC110 22 22     100%   22 1013.6        
May 26 01:55 Calm 16.09 Cloudy OVC006 22 22     100%   22 1013.6        
May 26 01:35 Calm 11.27 Mostly Cloudy BKN006 BKN110 21 21     100%   22 1013.9        
May 26 01:20 Calm 16.09 Cloudy OVC006 21 21     100%     1013.9        
May 26 00:55 Calm 16.09 Mostly Cloudy BKN006 BKN120 21 21     100%     1014.2        
May 26 00:35 Calm 6.44 Fog/Mist CLR 21 21     100%     1014.2        
May 26 00:15 Calm 11.27 Partly Cloudy SCT090 21 21     100%     1014.2        
May 25 23:55 Calm 11.27 Partly Cloudy SCT090 21 21     100%     1014.2        
May 25 23:35 Calm 11.27 Partly Cloudy SCT120 21 21     100%   22 1014.2        
May 25 23:15 Calm 11.27 Mostly Cloudy BKN120 21 21     100%   22 1014.2        
May 25 22:55 Calm 16.09 Partly Cloudy SCT120 22 22     100%   22 1014.6        
May 25 22:35 Calm 16.09 Light Drizzle SCT070 SCT095 SCT120 22 22     100%   22 1014.9        
May 25 22:20 Calm 16.09 Light Drizzle SCT120 22 22     100%   23 1014.6        
May 25 21:55 Calm 16.09 Light Rain SCT110 22 22     100%   23 1014.9        
May 25 21:35 Calm 16.09 Partly Cloudy SCT110 22 22     100%   23 1015.6        
May 25 21:15 Calm 16.09 Light Rain SCT110 22 22     100%   23 1015.2        
May 25 20:55 Calm 16.09 Partly Cloudy SCT110 22 22     100%   23 1015.2        
May 25 20:35 Calm 16.09 Partly Cloudy SCT110 22 22     100%   23 1014.9        
May 25 20:15 Calm 16.09 Partly Cloudy SCT120 22 22     100%   23 1014.6        
May 25 19:55 Calm 16.09 Partly Cloudy SCT110 22 22     100%   23 1014.6        
May 25 19:35 Calm 16.09 Partly Cloudy SCT110 23 23     99%   24 1014.6        
May 25 19:15 Calm 16.09 Partly Cloudy SCT110 23 22     91%   24 1014.2        
May 25 18:55 Calm 16.09 Clear CLR 23 21     89%   24 1014.2       0
May 25 18:35 Calm 16.09 Clear CLR 23 21     86%   24 1013.9        
May 25 18:15 Calm 16.09 Clear CLR 23 21     86%   24 1013.6        
May 25 17:55 Calm 16.09 Clear CLR 23 21     87%   24 1013.6        
May 25 17:35 Calm 16.09 Clear CLR 23 20     86%   23 1013.9        
May 25 17:15 Calm 16.09 Clear CLR 22 21     92%   23 1013.9        
May 25 16:55 W 8 16.09 Partly Cloudy SCT110 22 22     99%   23 1014.2        
May 25 16:35 Calm 16.09 Mostly Cloudy BKN110 21 21     100%   22 1013.9        
May 25 16:15 W 9 16.09 Light Rain SCT060 BKN095 OVC120 21 21     100%   22 1014.2        
May 25 15:55 WSW 11 16.09 Cloudy BKN095 OVC110 21 21     100%     1014.6   0 0  
May 25 15:35 WSW 8 16.09 Light Rain SCT038 BKN110 21 21     100%     1015.2   0    
May 25 15:15 WSW 5 16.09 Light Rain SCT026 BKN039 BKN050 20 20     100%     1015.9        
May 25 14:55 NW 11 16.09 Thunderstorms and Rain SCT017 OVC024 21 19     91%     1015.9   0    
May 25 14:35 NNW 13 16.09 Thunderstorms SCT017 BKN028 BKN037 24 20     78%   25 1015.9        
May 25 14:15 SW 11 16.09 Thunderstorms SCT048 SCT060 SCT080 26 23     80%   29 1015.6        
May 25 13:55 S 11 16.09 Partly Cloudy SCT031 SCT037 SCT050 27 23     75%   30 1015.6        
May 25 13:35 S 8 16.09 Mostly Cloudy SCT033 BKN039 BKN048 28 22     72%   30 1015.6        
May 25 13:15 SSE 9 16.09 Mostly Cloudy SCT033 SCT040 BKN048 28 22     69%   31 1015.6        
May 25 12:55 SSE 8 16.09 Partly Cloudy SCT031 SCT120 29 22     66%   31 1015.9        
May 25 12:35 S 8 16.09 Mostly Cloudy SCT027 SCT034 BKN120 29 23     68%   33 1016.3        
May 25 12:15 ESE 15 8.05 Haze BKN027 BKN034 BKN047 28 22     72%   31 1016.6        
May 25 11:55 SE 9 16.09 Mostly Cloudy BKN025 BKN032 BKN047 29 24     72%   33 1016.6        
May 25 11:35 SE 11 16.09 Partly Cloudy SCT025 SCT030 29 23     72%   32 1016.9        
May 25 11:15 E 11 16.09 Partly Cloudy SCT023 SCT037 SCT050 28 23     73%   31 1017.3        
May 25 10:55 E 8 16.09 Cloudy SCT023 BKN031 OVC070 27 23     77%   29 1017.6        
May 25 10:35 ENE 5 16.09 Mostly Cloudy BKN021 BKN027 27 22     77%   29 1017.6        
May 25 10:15 Calm 16.09 Cloudy OVC019 27 23     80%   29 1017.6        
May 25 09:55 SE 9 16.09 Mostly Cloudy BKN019 BKN120 26 23     80%   29 1017.6        
May 25 09:35 ESE 5 16.09 Mostly Cloudy BKN015 BKN120 26 23     82%   28 1017.6        
May 25 09:15 SE 8 16.09 Partly Cloudy SCT013 26 23     84%   29 1018        
May 25 08:55 ESE 13 16.09 Mostly Cloudy BKN009 25 25     97%   26 1018        
May 25 08:35 E 5 8.05 Fog/Mist SCT009 SCT022 24 24     100%   25 1018.3        
May 25 08:15 Calm 11.27 Mostly Cloudy BKN022 23 23     100%   24 1018        
May 25 07:55 Calm 11.27 Partly Cloudy SCT012 SCT020 22 22     100%   23 1018.3        
May 25 07:35 Calm 11.27 Partly Cloudy SCT012 SCT020 21 21     100%   22 1018.3        
May 25 07:15 Calm 8.05 Fog/Mist SCT010 SCT120 21 21     100%     1018        
May 25 06:55 Calm 8.05 Fog/Mist SCT010 SCT017 SCT055 21 21     100%     1018        
May 25 06:35 Calm 8.05 Fog/Mist SCT055 21 21     100%     1017.6        
May 25 06:15 Calm 8.05 Fog/Mist CLR 20 20     100%     1017.6        
May 25 05:55 Calm 8.05 Fog/Mist SCT044 20 20     100%     1017.6        
May 25 05:35 Calm 8.05 Fog/Mist SCT032 OVC044 20 20     100%     1017.3        
May 25 05:15 Calm 8.05 Fog/Mist BKN032 BKN040 20 20     100%     1017.3        
May 25 04:55 Calm 8.05 Fog/Mist BKN030 OVC038 21 21     100%     1016.9        
May 25 04:35 Calm 16.09 Cloudy OVC028 21 21     100%     1017.3        
May 25 04:15 Calm 11.27 Cloudy BKN028 OVC037 21 21     100%     1016.9        
May 25 03:55 Calm 8.05 Fog/Mist SCT026 OVC041 21 21     100%     1016.9        
May 25 03:35 Calm 11.27 Cloudy BKN041 OVC060 21 21     100%     1016.9        
May 25 03:15 Calm 8.05 Fog/Mist SCT043 BKN060 BKN070 21 21     100%     1016.9        
May 25 02:55 Calm 11.27 Cloudy OVC050 21 21     100%     1016.9        
May 25 02:35 Calm 8.05 Fog/Mist SCT045 BKN050 20 20     100%     1017.3        
May 25 02:15 Calm 6.44 Fog/Mist SCT043 SCT050 21 21     100%     1017.3        
May 25 01:55 Calm 6.44 Fog/Mist SCT055 21 21     100%     1017.6        
May 25 01:35 Calm 3.22 Fog/Mist CLR 21 21     100%     1017.6        
May 25 01:15 Calm 11.27 Mostly Cloudy SCT046 BKN050 21 21     100%     1018        
May 25 00:55 Calm 11.27 Mostly Cloudy SCT045 BKN050 21 21     100%     1018.3        
May 25 00:35 Calm 8.05 Fog/Mist SCT043 21 21     100%     1018.3        
May 25 00:15 Calm 4.83 Fog/Mist SCT041 BKN050 BKN070 21 21     100%     1018.6        
May 15 02:15 Calm 16.09 Clear CLR 21 19     91%     1014.9        
May 14 12:35 NNW 5 16.09 Mostly Cloudy SCT060 BKN070 31 18     47%   32 1017.3        
May 13 06:15 Calm 16.09 Clear CLR 15 15     100%     1020.3        
May 12 16:15 W 5 16.09 Clear CLR 32 15     36%   31 1019.3        
May 12 14:35 W 13 16.09 Clear CLR 32 15     37%   31 1020        
May 12 12:15 N 9 16.09 Clear CLR 30 15     39%   30 1021.3        
May 12 01:35 Calm 11.27 Clear CLR 16 16     100%     1019.3        
May 11 23:15 Calm 16.09 Clear CLR 18 18     100%     1019.7        
May 11 21:55 Calm 16.09 Clear CLR 19 19     98%     1019.7        
May 11 21:15 Calm 16.09 Clear CLR 21 19     89%     1019.3        
May 11 17:35 WSW 9 16.09 Clear CLR 30 16     41%   30 1018        
May 11 15:35 SW 9 16.09 Clear CLR 31 15     38%   31 1018.6        
Notice The following observation data may not be complete
May 11 12:35   16.09 Clear CLR          %              
Jun 12 04:15 Calm 16.09 Clear CLR 22 22     100%   23 1020.7        
Jun 12 03:55 Calm 16.09 Clear CLR 23 23     100%   24 1020.7        
Jun 11 21:55 Calm 16.09 Clear   26 22     79%   27 1021        
Jun 11 20:55 SSE 8 16.09 Clear   27 23     79%   29 1020        
Jun 11 17:15 S 9 16.09 Partly Cloudy SCT045 32 22     54%   37 1019        
Jun 11 15:15 SE 13 16.09 Partly Cloudy SCT045 32 22     56%   35 1020        
Jun 11 09:55 S 8 16.09 Mostly Cloudy BKN020 BKN085 28 23     74%   32 1021.7        
Jun 11 09:15 SE 11 16.09 Partly Cloudy SCT016 SCT110 27 23     77%   30 1021.7        
Notice The following observation data may not be complete
Jun 11 02:35   16.09 Clear CLR          %              
Jun 11 02:15 Calm 16.09 Clear   19 19     100%     1019        
Jun 11 00:15 Calm 16.09 Clear CLR 20 20     100%     1019.7        
Jun 10 18:35 SSE 5 16.09 Clear   28 18     54%   29 1017.6        
Jun 10 16:35 SE 8 16.09 Clear CLR 31 16     42%   31 1017.6        
Jun 10 13:35 SSE 13 16.09 Partly Cloudy SCT065 SCT075 31 18     47%   31 1019        
Jun 10 12:55 SSE 5 16.09 Mostly Cloudy SCT060 BKN075 31 17     44%   31 1019.3        
Jun 10 11:35 S 8 16.09 Partly Cloudy SCT065 30 16     42%   30 1019.7        
Jun 10 09:15 Calm 16.09 Partly Cloudy SCT080 SCT100 27 20     68%   28 1019.3        
Jun 10 05:15 Calm 16.09 Mostly Cloudy BKN080 BKN095 17 17     100%     1016.9        
Jun 10 03:15 Calm 16.09 Partly Cloudy SCT060 SCT070 18 18     100%     1016.3        
Jun 10 02:35 Calm 16.09 Partly Cloudy SCT060 18 18     100%     1016.3        
Jun 09 20:35 Calm 16.09 Clear CLR 22 20     86%   23 1014.6        
Jun 09 05:35 Calm 16.09 Partly Cloudy SCT060 16 16     100%     1014.2        
Jun 08 18:35 Calm 16.09 Partly Cloudy SCT110 26 17     56%   26 1011.2        
Jun 08 02:15 Calm 16.09 Clear CLR 16 16     100%     1011.5        
Jun 08 01:55 Calm 16.09 Clear CLR 16 16     97%     1011.5        
Jun 07 17:35 NNE 8 16.09 Clear CLR 28 16     49%   28 1009.8        
Jun 07 11:35 NE 13 16.09 Clear   26 20     69%   28 1009.8        
Jun 07 09:35 NE 11 16.09 Clear CLR 23 18     72%   24 1009.8        
Jun 06 10:55 Calm 16.09 Light Drizzle SCT005 BKN049 OVC055 22 22     100%   23 1009.8   0    
Notice The following observation data may not be complete
Jun 06 05:55   16.09 Cloudy OVC005          %              
Jun 06 04:55 Calm 16.09 Cloudy BKN005 BKN055 OVC070 22 22     100%   23 1009.2        
Jun 06 03:35 Calm 16.09 Light Rain SCT037 SCT048 SCT070 22 22     100%   23 1009.2        
Jun 06 01:55 Calm 16.09 Cloudy SCT035 BKN042 OVC065 22 22     100%   23 1009.5        
Jun 05 15:55 ENE 8 11.27 Rain SCT005 BKN048 OVC100 23 23     100%   25 1009.5   0 1